Location: Unspecified
(0.0000°N, 0.0000°E)
Time: 22:56:52
(UTC+00:00)

Envisat - Pass Details

Date: 31 May 2020
Orbit: 764 x 766 km, 98.1° (Epoch: 19 September)

Event Time Altitude Azimuth Distance (km) Brightness Sun altitude
Rises 18:38:20 0° 189° (S) 3,229 6.1 -9.4°
Reaches altitude 10° 18:40:56 10° 201° (SSW) 2,300 5.5 -10.0°
Maximum altitude 18:45:11 27° 258° (WSW) 1,427 5.1 -11.0°
Drops below altitude 10° 18:49:25 10° 315° (NW) 2,292 6.6 -11.9°
Sets 18:52:01 0° 327° (NNW) 3,214 7.2 -12.5°
